Time,TemperatureF,DewpointF,PressureIn,WindDirection,WindDirectionDegrees,WindSpeedMPH,WindSpeedGustMPH,Humidity,HourlyPrecipIn,Conditions,Clouds,dailyrainin,SoftwareType,DateUTC
2013-01-04 00:05:00,20.0,11.0,30.00,South,180,3.0,5.0,71,0.00,,,0.00,TxWx,2013-01-04 05:05:00,
2013-01-04 00:10:00,20.0,11.0,30.00,SSE,157,3.0,3.0,72,0.00,,,0.00,TxWx,2013-01-04 05:10:00,
2013-01-04 00:15:00,20.0,11.0,29.99,South,180,3.0,4.0,72,0.00,,,0.00,TxWx,2013-01-04 05:15:00,
2013-01-04 00:20:00,20.0,11.0,29.99,South,180,3.0,4.0,72,0.00,,,0.00,TxWx,2013-01-04 05:20:00,
2013-01-04 00:26:00,20.0,11.0,29.99,South,180,4.0,5.0,72,0.00,,,0.00,TxWx,2013-01-04 05:26:00,
2013-01-04 00:31:00,20.0,12.0,29.99,South,180,4.0,4.0,73,0.00,,,0.00,TxWx,2013-01-04 05:31:00,
2013-01-04 00:36:00,20.0,12.0,29.98,South,180,3.0,5.0,73,0.00,,,0.00,TxWx,2013-01-04 05:36:00,
2013-01-04 00:41:00,20.0,12.0,29.98,South,180,4.0,4.0,73,0.00,,,0.00,TxWx,2013-01-04 05:41:00,
2013-01-04 00:46:00,20.0,12.0,29.99,South,180,4.0,4.0,73,0.00,,,0.00,TxWx,2013-01-04 05:46:00,
2013-01-04 00:51:00,20.0,12.0,29.98,SSE,157,4.0,5.0,74,0.00,,,0.00,TxWx,2013-01-04 05:51:00,
2013-01-04 00:56:00,20.0,12.0,29.98,SSW,202,5.0,5.0,74,0.00,,,0.00,TxWx,2013-01-04 05:56:00,
2013-01-04 01:01:00,20.0,12.0,29.98,South,180,6.0,6.0,74,0.00,,,0.00,TxWx,2013-01-04 06:01:00,
2013-01-04 01:06:00,21.0,13.0,29.98,South,180,5.0,5.0,74,0.00,,,0.00,TxWx,2013-01-04 06:06:00,
2013-01-04 01:11:00,21.0,13.0,29.98,South,180,5.0,5.0,74,0.00,,,0.00,TxWx,2013-01-04 06:11:00,
2013-01-04 01:16:00,21.0,13.0,29.98,SSE,157,3.0,4.0,75,0.00,,,0.00,TxWx,2013-01-04 06:16:00,
2013-01-04 01:21:00,21.0,13.0,29.98,South,180,4.0,4.0,75,0.00,,,0.00,TxWx,2013-01-04 06:21:00,
2013-01-04 01:26:00,21.0,13.0,29.98,SSE,157,3.0,4.0,75,0.00,,,0.00,TxWx,2013-01-04 06:26:00,
2013-01-04 01:31:00,21.0,13.0,29.98,South,180,5.0,5.0,75,0.00,,,0.00,TxWx,2013-01-04 06:31:00,
2013-01-04 01:37:00,21.0,13.0,29.98,South,180,3.0,5.0,75,0.00,,,0.00,TxWx,2013-01-04 06:37:00,
2013-01-04 01:42:00,22.0,14.0,29.98,South,180,4.0,4.0,75,0.00,,,0.00,TxWx,2013-01-04 06:42:00,
2013-01-04 01:47:00,22.0,14.0,29.98,South,180,5.0,5.0,76,0.00,,,0.00,TxWx,2013-01-04 06:47:00,
2013-01-04 01:52:00,22.0,14.0,29.99,South,180,4.0,5.0,76,0.00,,,0.00,TxWx,2013-01-04 06:52:00,
2013-01-04 01:57:00,22.0,14.0,29.98,SSE,157,3.0,4.0,76,0.00,,,0.00,TxWx,2013-01-04 06:57:00,
2013-01-04 02:02:00,22.0,15.0,29.99,South,180,4.0,4.0,76,0.00,,,0.00,TxWx,2013-01-04 07:02:00,
2013-01-04 02:07:00,22.0,15.0,29.99,South,180,2.0,3.0,76,0.00,,,0.00,TxWx,2013-01-04 07:07:00,
2013-01-04 02:12:00,22.0,15.0,29.99,South,180,2.0,3.0,76,0.00,,,0.00,TxWx,2013-01-04 07:12:00,
2013-01-04 02:17:00,22.0,15.0,29.99,SSW,202,3.0,3.0,77,0.00,,,0.00,TxWx,2013-01-04 07:17:00,
2013-01-04 02:22:00,22.0,15.0,29.99,South,180,3.0,4.0,77,0.00,,,0.00,TxWx,2013-01-04 07:22:00,
2013-01-04 02:27:00,22.0,15.0,29.99,South,180,3.0,4.0,77,0.00,,,0.00,TxWx,2013-01-04 07:27:00,
2013-01-04 02:32:00,22.0,15.0,29.98,SSE,157,1.0,2.0,77,0.00,,,0.00,TxWx,2013-01-04 07:32:00,
2013-01-04 02:37:00,22.0,15.0,29.98,South,180,3.0,3.0,77,0.00,,,0.00,TxWx,2013-01-04 07:37:00,
2013-01-04 02:42:00,22.0,15.0,29.98,SSW,202,5.0,6.0,78,0.00,,,0.00,TxWx,2013-01-04 07:42:00,
2013-01-04 02:48:00,22.0,15.0,29.98,SW,225,3.0,4.0,78,0.00,,,0.00,TxWx,2013-01-04 07:48:00,
2013-01-04 02:53:00,22.0,15.0,29.98,South,180,3.0,3.0,78,0.00,,,0.00,TxWx,2013-01-04 07:53:00,
2013-01-04 02:58:00,23.0,16.0,29.98,South,180,3.0,3.0,78,0.00,,,0.00,TxWx,2013-01-04 07:58:00,
2013-01-04 03:03:00,23.0,16.0,29.98,South,180,2.0,3.0,79,0.00,,,0.00,TxWx,2013-01-04 08:03:00,
2013-01-04 03:08:00,23.0,16.0,29.98,SSE,157,1.0,2.0,79,0.00,,,0.00,TxWx,2013-01-04 08:08:00,
2013-01-04 03:13:00,23.0,16.0,29.98,SSE,157,3.0,4.0,79,0.00,,,0.00,TxWx,2013-01-04 08:13:00,
2013-01-04 03:18:00,23.0,16.0,29.98,SSE,157,2.0,3.0,79,0.00,,,0.00,TxWx,2013-01-04 08:18:00,
2013-01-04 03:23:00,23.0,16.0,29.98,SSE,157,1.0,2.0,79,0.00,,,0.00,TxWx,2013-01-04 08:23:00,
2013-01-04 03:28:00,23.0,16.0,29.98,SSW,202,2.0,2.0,79,0.00,,,0.00,TxWx,2013-01-04 08:28:00,
2013-01-04 03:33:00,23.0,17.0,29.98,SSE,157,1.0,2.0,80,0.00,,,0.00,TxWx,2013-01-04 08:33:00,
2013-01-04 03:38:00,23.0,17.0,29.98,ESE,112,0.0,0.0,80,0.00,,,0.00,TxWx,2013-01-04 08:38:00,
2013-01-04 03:43:00,23.0,17.0,29.98,South,180,2.0,3.0,80,0.00,,,0.00,TxWx,2013-01-04 08:43:00,
2013-01-04 03:48:00,23.0,17.0,29.98,SSE,157,0.0,0.0,80,0.00,,,0.00,TxWx,2013-01-04 08:48:00,
2013-01-04 03:53:00,23.0,17.0,29.98,South,180,0.0,0.0,80,0.00,,,0.00,TxWx,2013-01-04 08:53:00,
2013-01-04 03:58:00,23.0,17.0,29.98,SSW,202,2.0,3.0,81,0.00,,,0.00,TxWx,2013-01-04 08:58:00,
2013-01-04 04:04:00,23.0,17.0,29.98,SSE,157,3.0,3.0,81,0.00,,,0.00,TxWx,2013-01-04 09:04:00,
2013-01-04 04:09:00,23.0,17.0,29.98,SSE,157,1.0,2.0,81,0.00,,,0.00,TxWx,2013-01-04 09:09:00,
2013-01-04 04:14:00,23.0,17.0,29.98,SE,135,2.0,3.0,81,0.00,,,0.00,TxWx,2013-01-04 09:14:00,
2013-01-04 04:19:00,24.0,18.0,29.98,SE,135,0.0,0.0,81,0.00,,,0.00,TxWx,2013-01-04 09:19:00,
2013-01-04 04:24:00,24.0,18.0,29.98,SE,135,0.0,0.0,82,0.00,,,0.00,TxWx,2013-01-04 09:24:00,
2013-01-04 04:31:00,24.0,18.0,29.98,SE,135,2.0,3.0,82,0.00,,,0.00,TxWx,2013-01-04 09:31:00,
2013-01-04 04:36:00,24.0,18.0,29.97,ESE,112,0.0,0.0,82,0.00,,,0.00,TxWx,2013-01-04 09:36:00,
2013-01-04 04:41:00,24.0,18.0,29.97,ESE,112,2.0,2.0,82,0.00,,,0.00,TxWx,2013-01-04 09:41:00,
2013-01-04 04:46:00,24.0,18.0,29.97,SSE,157,2.0,3.0,82,0.00,,,0.00,TxWx,2013-01-04 09:46:00,
2013-01-04 04:51:00,24.0,18.0,29.97,SSE,157,3.0,3.0,82,0.00,,,0.00,TxWx,2013-01-04 09:51:00,
2013-01-04 04:56:00,24.0,18.0,29.97,South,180,2.0,3.0,82,0.00,,,0.00,TxWx,2013-01-04 09:56:00,
2013-01-04 05:01:00,24.0,18.0,29.97,SE,135,0.0,0.0,83,0.00,,,0.00,TxWx,2013-01-04 10:01:00,
2013-01-04 05:07:00,24.0,18.0,29.97,SE,135,1.0,1.0,83,0.00,,,0.00,TxWx,2013-01-04 10:07:00,
2013-01-04 05:12:00,24.0,18.0,29.97,South,180,2.0,3.0,83,0.00,,,0.00,TxWx,2013-01-04 10:12:00,
2013-01-04 05:17:00,24.0,19.0,29.97,SSE,157,3.0,3.0,83,0.00,,,0.00,TxWx,2013-01-04 10:17:00,
2013-01-04 05:22:00,24.0,19.0,29.97,SE,135,3.0,3.0,83,0.00,,,0.00,TxWx,2013-01-04 10:22:00,
2013-01-04 05:27:00,24.0,19.0,29.97,South,180,3.0,3.0,83,0.00,,,0.00,TxWx,2013-01-04 10:27:00,
2013-01-04 05:32:00,25.0,20.0,29.97,South,180,3.0,3.0,84,0.00,,,0.00,TxWx,2013-01-04 10:32:00,
2013-01-04 05:37:00,25.0,20.0,29.97,South,180,2.0,3.0,84,0.00,,,0.00,TxWx,2013-01-04 10:37:00,
2013-01-04 05:42:00,25.0,20.0,29.97,SSE,157,3.0,4.0,84,0.00,,,0.00,TxWx,2013-01-04 10:42:00,
2013-01-04 05:47:00,25.0,20.0,29.97,SSE,157,3.0,4.0,84,0.00,,,0.00,TxWx,2013-01-04 10:47:00,
2013-01-04 05:52:00,25.0,20.0,29.97,SSE,157,4.0,4.0,84,0.00,,,0.00,TxWx,2013-01-04 10:52:00,
2013-01-04 05:57:00,25.0,20.0,29.97,South,180,3.0,3.0,84,0.00,,,0.00,TxWx,2013-01-04 10:57:00,
2013-01-04 06:02:00,25.0,20.0,29.97,South,180,2.0,2.0,84,0.00,,,0.00,TxWx,2013-01-04 11:02:00,
2013-01-04 06:07:00,25.0,20.0,29.97,SSE,157,3.0,3.0,84,0.00,,,0.00,TxWx,2013-01-04 11:07:00,
2013-01-04 06:13:00,25.0,20.0,29.97,SSE,157,2.0,3.0,85,0.00,,,0.00,TxWx,2013-01-04 11:13:00,
2013-01-04 06:18:00,25.0,20.0,29.97,SSE,157,0.0,0.0,85,0.00,,,0.00,TxWx,2013-01-04 11:18:00,
2013-01-04 06:23:00,25.0,20.0,29.98,SSE,157,2.0,3.0,85,0.00,,,0.00,TxWx,2013-01-04 11:23:00,
2013-01-04 06:28:00,25.0,20.0,29.98,SSE,157,1.0,2.0,85,0.00,,,0.00,TxWx,2013-01-04 11:28:00,
2013-01-04 06:33:00,26.0,21.0,29.99,SSE,157,2.0,2.0,85,0.00,,,0.00,TxWx,2013-01-04 11:33:00,
2013-01-04 06:38:00,26.0,21.0,29.99,SSE,157,1.0,1.0,85,0.00,,,0.00,TxWx,2013-01-04 11:38:00,
2013-01-04 06:43:00,26.0,21.0,29.99,South,180,0.0,0.0,86,0.00,,,0.00,TxWx,2013-01-04 11:43:00,
2013-01-04 06:48:00,26.0,21.0,30.00,South,180,0.0,0.0,86,0.00,,,0.00,TxWx,2013-01-04 11:48:00,
2013-01-04 06:53:00,26.0,21.0,30.00,South,180,0.0,0.0,86,0.00,,,0.00,TxWx,2013-01-04 11:53:00,
2013-01-04 06:58:00,26.0,21.0,30.00,ESE,112,0.0,0.0,86,0.00,,,0.00,TxWx,2013-01-04 11:58:00,
2013-01-04 07:04:00,26.0,21.0,30.00,NNE,22,0.0,1.0,86,0.00,,,0.00,TxWx,2013-01-04 12:04:00,
2013-01-04 07:09:00,26.0,21.0,30.00,ESE,112,0.0,0.0,86,0.00,,,0.00,TxWx,2013-01-04 12:09:00,
2013-01-04 07:14:00,26.0,21.0,30.00,ESE,112,0.0,1.0,86,0.00,,,0.00,TxWx,2013-01-04 12:14:00,
2013-01-04 07:19:00,26.0,21.0,30.00,East,90,0.0,0.0,86,0.00,,,0.00,TxWx,2013-01-04 12:19:00,
2013-01-04 07:24:00,26.0,21.0,30.00,ESE,112,0.0,0.0,86,0.00,,,0.00,TxWx,2013-01-04 12:24:00,
2013-01-04 07:29:00,26.0,21.0,30.00,SSE,157,1.0,3.0,86,0.00,,,0.00,TxWx,2013-01-04 12:29:00,
2013-01-04 07:34:00,26.0,22.0,30.00,SSE,157,0.0,0.0,87,0.00,,,0.00,TxWx,2013-01-04 12:34:00,
2013-01-04 07:39:00,26.0,22.0,30.00,SE,135,1.0,1.0,87,0.00,,,0.00,TxWx,2013-01-04 12:39:00,
2013-01-04 07:44:00,26.0,22.0,30.00,SSE,157,0.0,0.0,87,0.00,,,0.00,TxWx,2013-01-04 12:44:00,
2013-01-04 07:49:00,26.0,22.0,29.99,SSE,157,1.0,2.0,87,0.00,,,0.00,TxWx,2013-01-04 12:49:00,
2013-01-04 07:55:00,26.0,22.0,29.99,North,0,0.0,0.0,87,0.00,,,0.00,TxWx,2013-01-04 12:55:00,
2013-01-04 08:00:00,27.0,23.0,29.99,SE,135,0.0,0.0,87,0.00,,,0.00,TxWx,2013-01-04 13:00:00,
2013-01-04 08:05:00,27.0,23.0,29.99,SE,135,0.0,0.0,87,0.00,,,0.00,TxWx,2013-01-04 13:05:00,
2013-01-04 08:10:00,27.0,23.0,29.99,SE,135,0.0,0.0,87,0.00,,,0.00,TxWx,2013-01-04 13:10:00,
2013-01-04 08:15:00,27.0,23.0,29.98,SE,135,0.0,0.0,87,0.00,,,0.00,TxWx,2013-01-04 13:15:00,
2013-01-04 08:20:00,27.0,23.0,29.98,SE,135,0.0,0.0,87,0.00,,,0.00,TxWx,2013-01-04 13:20:00,
2013-01-04 08:25:00,27.0,23.0,29.98,SE,135,0.0,0.0,87,0.00,,,0.00,TxWx,2013-01-04 13:25:00,
2013-01-04 08:30:00,27.0,23.0,29.98,SE,135,0.0,0.0,87,0.00,,,0.00,TxWx,2013-01-04 13:30:00,
2013-01-04 08:35:00,28.0,24.0,29.98,SE,135,0.0,0.0,87,0.00,,,0.00,TxWx,2013-01-04 13:35:00,
2013-01-04 08:40:00,28.0,24.0,29.98,SE,135,0.0,0.0,87,0.00,,,0.00,TxWx,2013-01-04 13:40:00,
2013-01-04 08:45:00,28.0,24.0,29.98,SSE,157,0.0,0.0,87,0.00,,,0.00,TxWx,2013-01-04 13:45:00,
2013-01-04 08:50:00,29.0,24.0,29.98,SSE,157,0.0,0.0,87,0.00,,,0.00,TxWx,2013-01-04 13:50:00,
2013-01-04 08:55:00,29.0,24.0,29.98,SSE,157,0.0,0.0,86,0.00,,,0.00,TxWx,2013-01-04 13:55:00,
2013-01-04 09:00:00,30.0,25.0,29.98,South,180,0.0,0.0,86,0.00,,,0.00,TxWx,2013-01-04 14:00:00,
2013-01-04 09:06:00,31.0,26.0,29.98,SSE,157,0.0,0.0,85,0.00,,,0.00,TxWx,2013-01-04 14:06:00,
2013-01-04 09:11:00,31.0,26.0,29.98,SSE,157,5.0,6.0,84,0.00,,,0.00,TxWx,2013-01-04 14:11:00,
2013-01-04 09:16:00,32.0,26.0,29.97,SSE,157,2.0,3.0,82,0.00,,,0.00,TxWx,2013-01-04 14:16:00,
2013-01-04 09:21:00,32.0,26.0,29.98,SSW,202,3.0,4.0,81,0.00,,,0.00,TxWx,2013-01-04 14:21:00,
2013-01-04 09:26:00,33.0,26.0,29.97,SSE,157,4.0,4.0,80,0.00,,,0.00,TxWx,2013-01-04 14:26:00,
2013-01-04 09:31:00,34.0,27.0,29.97,SSE,157,4.0,5.0,78,0.00,,,0.00,TxWx,2013-01-04 14:31:00,
2013-01-04 09:36:00,34.0,27.0,29.97,SSE,157,2.0,3.0,77,0.00,,,0.00,TxWx,2013-01-04 14:36:00,
2013-01-04 09:41:00,35.0,27.0,29.98,South,180,3.0,3.0,76,0.00,,,0.00,TxWx,2013-01-04 14:41:00,
2013-01-04 09:46:00,35.0,27.0,29.98,SE,135,0.0,1.0,75,0.00,,,0.00,TxWx,2013-01-04 14:46:00,
2013-01-04 09:51:00,35.0,26.0,29.98,South,180,6.0,6.0,74,0.00,,,0.00,TxWx,2013-01-04 14:51:00,
2013-01-04 09:56:00,35.0,26.0,29.98,SSE,157,4.0,5.0,73,0.00,,,0.00,TxWx,2013-01-04 14:56:00,
2013-01-04 10:01:00,35.0,26.0,29.97,SSE,157,3.0,3.0,72,0.00,,,0.00,TxWx,2013-01-04 15:01:00,
2013-01-04 10:06:00,35.0,26.0,29.97,SE,135,5.0,5.0,72,0.00,,,0.00,TxWx,2013-01-04 15:06:00,
2013-01-04 10:11:00,35.0,26.0,29.97,SSE,157,5.0,5.0,72,0.00,,,0.00,TxWx,2013-01-04 15:11:00,
2013-01-04 10:17:00,35.0,26.0,29.97,South,180,10.0,11.0,71,0.00,,,0.00,TxWx,2013-01-04 15:17:00,
2013-01-04 10:22:00,35.0,25.0,29.96,SE,135,3.0,3.0,70,0.00,,,0.00,TxWx,2013-01-04 15:22:00,
2013-01-04 10:27:00,36.0,26.0,29.96,SW,225,12.0,12.0,70,0.00,,,0.00,TxWx,2013-01-04 15:27:00,
2013-01-04 10:32:00,36.0,25.0,29.95,SSW,202,15.0,17.0,66,0.00,,,0.00,TxWx,2013-01-04 15:32:00,
2013-01-04 10:37:00,36.0,25.0,29.95,South,180,9.0,9.0,66,0.00,,,0.00,TxWx,2013-01-04 15:37:00,
2013-01-04 10:42:00,37.0,25.0,29.94,SSW,202,8.0,11.0,65,0.00,,,0.00,TxWx,2013-01-04 15:42:00,
2013-01-04 10:47:00,37.0,25.0,29.94,SSW,202,7.0,9.0,64,0.00,,,0.00,TxWx,2013-01-04 15:47:00,
2013-01-04 10:52:00,37.0,25.0,29.94,SSW,202,6.0,8.0,64,0.00,,,0.00,TxWx,2013-01-04 15:52:00,
2013-01-04 10:57:00,37.0,24.0,29.94,SSW,202,11.0,12.0,63,0.00,,,0.00,TxWx,2013-01-04 15:57:00,
2013-01-04 11:02:00,37.0,24.0,29.93,South,180,7.0,8.0,63,0.00,,,0.00,TxWx,2013-01-04 16:02:00,
2013-01-04 11:07:00,37.0,24.0,29.93,SSW,202,13.0,14.0,62,0.00,,,0.00,TxWx,2013-01-04 16:07:00,
2013-01-04 11:12:00,37.0,24.0,29.93,SSW,202,5.0,6.0,62,0.00,,,0.00,TxWx,2013-01-04 16:12:00,
2013-01-04 11:17:00,37.0,24.0,29.92,South,180,7.0,7.0,62,0.00,,,0.00,TxWx,2013-01-04 16:17:00,
2013-01-04 11:23:00,37.0,24.0,29.92,South,180,10.0,13.0,61,0.00,,,0.00,TxWx,2013-01-04 16:23:00,
2013-01-04 11:28:00,37.0,24.0,29.91,South,180,7.0,12.0,61,0.00,,,0.00,TxWx,2013-01-04 16:28:00,
2013-01-04 11:33:00,37.0,24.0,29.91,South,180,10.0,16.0,61,0.00,,,0.00,TxWx,2013-01-04 16:33:00,
2013-01-04 11:38:00,38.0,25.0,29.91,SSE,157,4.0,5.0,61,0.00,,,0.00,TxWx,2013-01-04 16:38:00,
2013-01-04 11:43:00,38.0,25.0,29.91,South,180,8.0,8.0,61,0.00,,,0.00,TxWx,2013-01-04 16:43:00,
2013-01-04 11:48:00,38.0,24.0,29.90,South,180,5.0,7.0,60,0.00,,,0.00,TxWx,2013-01-04 16:48:00,
2013-01-04 11:53:00,38.0,24.0,29.90,South,180,6.0,8.0,60,0.00,,,0.00,TxWx,2013-01-04 16:53:00,
2013-01-04 11:58:00,38.0,24.0,29.90,South,180,3.0,4.0,59,0.00,,,0.00,TxWx,2013-01-04 16:58:00,
2013-01-04 12:03:00,38.0,24.0,29.89,SW,225,8.0,8.0,59,0.00,,,0.00,TxWx,2013-01-04 17:03:00,
2013-01-04 12:08:00,38.0,24.0,29.89,SW,225,5.0,5.0,59,0.00,,,0.00,TxWx,2013-01-04 17:08:00,
2013-01-04 12:13:00,39.0,25.0,29.89,South,180,3.0,5.0,59,0.00,,,0.00,TxWx,2013-01-04 17:13:00,
2013-01-04 12:18:00,39.0,24.0,29.89,SE,135,2.0,5.0,57,0.00,,,0.00,TxWx,2013-01-04 17:18:00,
2013-01-04 12:24:00,39.0,24.0,29.89,SW,225,5.0,6.0,57,0.00,,,0.00,TxWx,2013-01-04 17:24:00,
2013-01-04 12:29:00,39.0,24.0,29.88,South,180,5.0,5.0,57,0.00,,,0.00,TxWx,2013-01-04 17:29:00,
2013-01-04 12:34:00,39.0,24.0,29.88,SSW,202,6.0,8.0,56,0.00,,,0.00,TxWx,2013-01-04 17:34:00,
2013-01-04 12:39:00,39.0,24.0,29.88,SSW,202,5.0,6.0,56,0.00,,,0.00,TxWx,2013-01-04 17:39:00,
2013-01-04 12:44:00,39.0,23.0,29.88,WSW,247,8.0,8.0,56,0.00,,,0.00,TxWx,2013-01-04 17:44:00,
2013-01-04 12:49:00,39.0,23.0,29.88,SW,225,6.0,7.0,55,0.00,,,0.00,TxWx,2013-01-04 17:49:00,
2013-01-04 12:54:00,39.0,23.0,29.88,SW,225,5.0,5.0,55,0.00,,,0.00,TxWx,2013-01-04 17:54:00,
2013-01-04 12:59:00,39.0,23.0,29.88,SSW,202,11.0,14.0,55,0.00,,,0.00,TxWx,2013-01-04 17:59:00,
2013-01-04 13:04:00,39.0,23.0,29.87,South,180,5.0,5.0,56,0.00,,,0.00,TxWx,2013-01-04 18:04:00,
2013-01-04 13:09:00,39.0,24.0,29.87,SSW,202,8.0,9.0,56,0.00,,,0.00,TxWx,2013-01-04 18:09:00,
2013-01-04 13:14:00,39.0,23.0,29.87,WSW,247,8.0,10.0,56,0.00,,,0.00,TxWx,2013-01-04 18:14:00,
2013-01-04 13:19:00,39.0,23.0,29.87,SSW,202,6.0,8.0,55,0.00,,,0.00,TxWx,2013-01-04 18:19:00,
2013-01-04 13:24:00,39.0,23.0,29.87,South,180,5.0,5.0,56,0.00,,,0.00,TxWx,2013-01-04 18:24:00,
2013-01-04 13:30:00,39.0,23.0,29.86,WSW,247,6.0,10.0,55,0.00,,,0.00,TxWx,2013-01-04 18:30:00,
2013-01-04 13:35:00,39.0,23.0,29.86,South,180,8.0,10.0,55,0.00,,,0.00,TxWx,2013-01-04 18:35:00,
2013-01-04 13:40:00,39.0,23.0,29.86,South,180,5.0,6.0,56,0.00,,,0.00,TxWx,2013-01-04 18:40:00,
2013-01-04 13:45:00,39.0,23.0,29.86,South,180,6.0,7.0,56,0.00,,,0.00,TxWx,2013-01-04 18:45:00,
2013-01-04 13:50:00,39.0,23.0,29.86,WSW,247,8.0,10.0,56,0.00,,,0.00,TxWx,2013-01-04 18:50:00,
2013-01-04 13:54:00,36.0,25.0,29.93,West,270,5.0,5.0,66,0.00,,,0.00,TxWx,2013-01-04 18:54:00,
2013-01-04 13:55:00,39.0,23.0,29.86,South,180,5.0,6.0,56,0.00,,,0.00,TxWx,2013-01-04 18:55:00,
2013-01-04 14:00:00,39.0,24.0,29.86,SSW,202,3.0,5.0,56,0.00,,,0.00,TxWx,2013-01-04 19:00:00,
2013-01-04 14:01:00,36.0,25.0,29.93,WSW,247,6.0,7.0,67,0.00,,,0.00,TxWx,2013-01-04 19:01:00,
2013-01-04 14:02:00,36.0,25.0,29.93,West,270,4.0,5.0,67,0.00,,,0.00,TxWx,2013-01-04 19:02:00,
2013-01-04 14:03:00,36.0,25.0,29.93,NW,315,4.0,4.0,67,0.00,,,0.00,TxWx,2013-01-04 19:03:00,
2013-01-04 14:05:00,39.0,23.0,29.86,South,180,5.0,7.0,56,0.00,,,0.00,TxWx,2013-01-04 19:05:00,
2013-01-04 14:10:00,39.0,23.0,29.86,SSW,202,5.0,6.0,56,0.00,,,0.00,TxWx,2013-01-04 19:10:00,
2013-01-04 14:15:00,39.0,23.0,29.86,SSW,202,6.0,8.0,56,0.00,,,0.00,TxWx,2013-01-04 19:15:00,
2013-01-04 14:21:00,39.0,23.0,29.86,South,180,3.0,3.0,56,0.00,,,0.00,TxWx,2013-01-04 19:21:00,
2013-01-04 14:26:00,39.0,23.0,29.86,SW,225,9.0,10.0,55,0.00,,,0.00,TxWx,2013-01-04 19:26:00,
2013-01-04 14:31:00,39.0,23.0,29.86,SW,225,4.0,5.0,55,0.00,,,0.00,TxWx,2013-01-04 19:31:00,
2013-01-04 14:36:00,39.0,23.0,29.86,SSW,202,9.0,9.0,54,0.00,,,0.00,TxWx,2013-01-04 19:36:00,
2013-01-04 14:41:00,39.0,23.0,29.86,ESE,112,4.0,9.0,55,0.00,,,0.00,TxWx,2013-01-04 19:41:00,
2013-01-04 14:43:00,35.0,26.0,29.95,SW,225,16.0,16.0,73,0.00,,,0.00,TxWx,2013-01-04 19:43:00,
2013-01-04 14:46:00,39.0,23.0,29.86,South,180,5.0,5.0,54,0.00,,,0.00,TxWx,2013-01-04 19:46:00,
2013-01-04 14:48:00,35.0,25.0,29.95,West,270,9.0,13.0,71,0.00,,,0.00,TxWx,2013-01-04 19:48:00,
2013-01-04 14:49:00,35.0,25.0,29.95,WSW,247,15.0,16.0,71,0.00,,,0.00,TxWx,2013-01-04 19:49:00,
2013-01-04 14:50:00,35.0,25.0,29.95,WSW,247,11.0,12.0,71,0.00,,,0.00,TxWx,2013-01-04 19:50:00,
2013-01-04 14:51:00,39.0,23.0,29.86,SSW,202,7.0,7.0,54,0.00,,,0.00,TxWx,2013-01-04 19:51:00,
2013-01-04 14:52:00,35.0,25.0,29.95,West,270,4.0,4.0,70,0.00,,,0.00,TxWx,2013-01-04 19:52:00,
2013-01-04 14:56:00,39.0,23.0,29.86,SSW,202,5.0,5.0,54,0.00,,,0.00,TxWx,2013-01-04 19:56:00,
2013-01-04 15:01:00,39.0,23.0,29.87,SSW,202,6.0,8.0,54,0.00,,,0.00,TxWx,2013-01-04 20:01:00,
2013-01-04 15:06:00,39.0,23.0,29.86,South,180,2.0,2.0,55,0.00,,,0.00,TxWx,2013-01-04 20:06:00,
2013-01-04 15:11:00,39.0,23.0,29.87,SSW,202,6.0,6.0,55,0.00,,,0.00,TxWx,2013-01-04 20:11:00,
2013-01-04 15:16:00,39.0,23.0,29.86,SSW,202,3.0,3.0,55,0.00,,,0.00,TxWx,2013-01-04 20:16:00,
2013-01-04 15:22:00,39.0,23.0,29.86,South,180,5.0,5.0,55,0.00,,,0.00,TxWx,2013-01-04 20:22:00,
2013-01-04 15:27:00,39.0,23.0,29.87,SW,225,5.0,5.0,54,0.00,,,0.00,TxWx,2013-01-04 20:27:00,
2013-01-04 15:32:00,39.0,23.0,29.86,South,180,5.0,5.0,55,0.00,,,0.00,TxWx,2013-01-04 20:32:00,
2013-01-04 15:37:00,39.0,23.0,29.86,SSE,157,1.0,2.0,55,0.00,,,0.00,TxWx,2013-01-04 20:37:00,
2013-01-04 15:42:00,39.0,23.0,29.86,SW,225,6.0,7.0,55,0.00,,,0.00,TxWx,2013-01-04 20:42:00,
2013-01-04 15:47:00,39.0,23.0,29.87,SSW,202,5.0,5.0,55,0.00,,,0.00,TxWx,2013-01-04 20:47:00,
2013-01-04 15:48:00,35.0,25.0,29.96,SW,225,5.0,6.0,70,0.00,,,0.00,TxWx,2013-01-04 20:48:00,
2013-01-04 15:52:00,39.0,23.0,29.87,SSW,202,6.0,6.0,55,0.00,,,0.00,TxWx,2013-01-04 20:52:00,
2013-01-04 15:54:00,36.0,26.0,29.96,WNW,292,8.0,10.0,70,0.00,,,0.00,TxWx,2013-01-04 20:54:00,
2013-01-04 15:55:00,36.0,26.0,29.96,South,180,5.0,6.0,70,0.00,,,0.00,TxWx,2013-01-04 20:55:00,
2013-01-04 15:56:00,36.0,26.0,29.96,South,180,4.0,5.0,70,0.00,,,0.00,TxWx,2013-01-04 20:56:00,
2013-01-04 15:57:00,39.0,23.0,29.86,WNW,292,4.0,4.0,55,0.00,,,0.00,TxWx,2013-01-04 20:57:00,
2013-01-04 16:02:00,39.0,23.0,29.86,SSW,202,5.0,7.0,54,0.00,,,0.00,TxWx,2013-01-04 21:02:00,
2013-01-04 16:07:00,39.0,23.0,29.86,WSW,247,3.0,5.0,55,0.00,,,0.00,TxWx,2013-01-04 21:07:00,
2013-01-04 16:12:00,39.0,23.0,29.86,SW,225,3.0,5.0,55,0.00,,,0.00,TxWx,2013-01-04 21:12:00,
2013-01-04 16:18:00,39.0,23.0,29.87,South,180,3.0,5.0,55,0.00,,,0.00,TxWx,2013-01-04 21:18:00,
2013-01-04 16:23:00,38.0,22.0,29.86,SW,225,4.0,7.0,56,0.00,,,0.00,TxWx,2013-01-04 21:23:00,
2013-01-04 16:28:00,38.0,23.0,29.87,SW,225,2.0,3.0,56,0.00,,,0.00,TxWx,2013-01-04 21:28:00,
2013-01-04 16:33:00,38.0,23.0,29.86,SW,225,3.0,3.0,56,0.00,,,0.00,TxWx,2013-01-04 21:33:00,
2013-01-04 16:38:00,38.0,23.0,29.86,WSW,247,5.0,5.0,57,0.00,,,0.00,TxWx,2013-01-04 21:38:00,
2013-01-04 16:43:00,38.0,23.0,29.87,SSW,202,4.0,5.0,57,0.00,,,0.00,TxWx,2013-01-04 21:43:00,
2013-01-04 16:48:00,38.0,23.0,29.87,SSW,202,5.0,6.0,57,0.00,,,0.00,TxWx,2013-01-04 21:48:00,
2013-01-04 16:49:00,36.0,27.0,29.97,WSW,247,12.0,14.0,71,0.00,,,0.00,TxWx,2013-01-04 21:49:00,
2013-01-04 16:50:00,36.0,27.0,29.97,SW,225,6.0,9.0,71,0.00,,,0.00,TxWx,2013-01-04 21:50:00,
2013-01-04 16:51:00,36.0,27.0,29.97,SW,225,8.0,10.0,71,0.00,,,0.00,TxWx,2013-01-04 21:51:00,
2013-01-04 16:53:00,38.0,23.0,29.87,SSE,157,6.0,6.0,57,0.00,,,0.00,TxWx,2013-01-04 21:53:00,
2013-01-04 16:54:00,36.0,27.0,29.97,WSW,247,6.0,6.0,71,0.00,,,0.00,TxWx,2013-01-04 21:54:00,
2013-01-04 16:55:00,36.0,27.0,29.98,SW,225,3.0,4.0,71,0.00,,,0.00,TxWx,2013-01-04 21:55:00,
2013-01-04 16:58:00,38.0,23.0,29.86,SW,225,6.0,8.0,57,0.00,,,0.00,TxWx,2013-01-04 21:58:00,
2013-01-04 17:03:00,38.0,23.0,29.87,South,180,3.0,5.0,57,0.00,,,0.00,TxWx,2013-01-04 22:03:00,
2013-01-04 17:05:00,36.0,27.0,29.98,SW,225,3.0,6.0,71,0.00,,,0.00,TxWx,2013-01-04 22:05:00,
2013-01-04 17:06:00,36.0,27.0,29.98,SSW,202,9.0,9.0,71,0.00,,,0.00,TxWx,2013-01-04 22:06:00,
2013-01-04 17:08:00,38.0,23.0,29.86,South,180,6.0,8.0,57,0.00,,,0.00,TxWx,2013-01-04 22:08:00,
2013-01-04 17:14:00,38.0,23.0,29.87,South,180,5.0,8.0,56,0.00,,,0.00,TxWx,2013-01-04 22:14:00,
2013-01-04 17:19:00,37.0,22.0,29.87,SSW,202,3.0,5.0,57,0.00,,,0.00,TxWx,2013-01-04 22:19:00,
2013-01-04 17:24:00,37.0,22.0,29.87,SSW,202,3.0,3.0,57,0.00,,,0.00,TxWx,2013-01-04 22:24:00,
2013-01-04 17:29:00,37.0,22.0,29.87,SW,225,3.0,3.0,57,0.00,,,0.00,TxWx,2013-01-04 22:29:00,
2013-01-04 17:34:00,37.0,22.0,29.87,SSW,202,4.0,5.0,57,0.00,,,0.00,TxWx,2013-01-04 22:34:00,
2013-01-04 17:39:00,37.0,22.0,29.87,SE,135,2.0,3.0,58,0.00,,,0.00,TxWx,2013-01-04 22:39:00,
2013-01-04 17:44:00,37.0,23.0,29.87,South,180,1.0,2.0,58,0.00,,,0.00,TxWx,2013-01-04 22:44:00,
2013-01-04 17:49:00,36.0,22.0,29.87,South,180,1.0,2.0,58,0.00,,,0.00,TxWx,2013-01-04 22:49:00,
2013-01-04 17:54:00,36.0,22.0,29.88,South,180,0.0,0.0,59,0.00,,,0.00,TxWx,2013-01-04 22:54:00,
2013-01-04 17:59:00,36.0,22.0,29.88,South,180,0.0,1.0,59,0.00,,,0.00,TxWx,2013-01-04 22:59:00,
2013-01-04 18:05:00,36.0,22.0,29.88,South,180,0.0,0.0,60,0.00,,,0.00,TxWx,2013-01-04 23:05:00,
2013-01-04 18:10:00,35.0,22.0,29.88,South,180,0.0,0.0,60,0.00,,,0.00,TxWx,2013-01-04 23:10:00,
2013-01-04 18:15:00,35.0,22.0,29.88,South,180,2.0,3.0,61,0.00,,,0.00,TxWx,2013-01-04 23:15:00,
2013-01-04 18:20:00,35.0,22.0,29.88,South,180,0.0,0.0,61,0.00,,,0.00,TxWx,2013-01-04 23:20:00,
2013-01-04 18:25:00,34.0,21.0,29.88,South,180,0.0,0.0,62,0.00,,,0.00,TxWx,2013-01-04 23:25:00,
2013-01-04 18:30:00,34.0,21.0,29.88,WNW,292,2.0,2.0,62,0.00,,,0.00,TxWx,2013-01-04 23:30:00,
2013-01-04 18:35:00,34.0,22.0,29.88,WSW,247,2.0,2.0,63,0.00,,,0.00,TxWx,2013-01-04 23:35:00,
2013-01-04 18:40:00,33.0,21.0,29.88,WSW,247,0.0,0.0,64,0.00,,,0.00,TxWx,2013-01-04 23:40:00,
2013-01-04 18:45:00,32.0,21.0,29.88,WSW,247,0.0,0.0,66,0.00,,,0.00,TxWx,2013-01-04 23:45:00,
2013-01-04 18:50:00,32.0,21.0,29.88,WSW,247,0.0,0.0,67,0.00,,,0.00,TxWx,2013-01-04 23:50:00,
2013-01-04 18:56:00,31.0,20.0,29.89,WSW,247,0.0,0.0,68,0.00,,,0.00,TxWx,2013-01-04 23:56:00,
2013-01-04 19:01:00,31.0,21.0,29.89,WSW,247,0.0,0.0,69,0.00,,,0.00,TxWx,2013-01-05 00:01:00,
2013-01-04 19:06:00,31.0,21.0,29.89,WSW,247,0.0,0.0,69,0.00,,,0.00,TxWx,2013-01-05 00:06:00,
2013-01-04 19:11:00,31.0,21.0,29.89,WSW,247,2.0,3.0,70,0.00,,,0.00,TxWx,2013-01-05 00:11:00,
2013-01-04 19:16:00,30.0,21.0,29.89,WSW,247,0.0,0.0,71,0.00,,,0.00,TxWx,2013-01-05 00:16:00,
2013-01-04 19:21:00,30.0,21.0,29.89,WSW,247,0.0,0.0,71,0.00,,,0.00,TxWx,2013-01-05 00:21:00,
2013-01-04 19:26:00,30.0,21.0,29.89,WSW,247,0.0,0.0,72,0.00,,,0.00,TxWx,2013-01-05 00:26:00,
2013-01-04 19:31:00,30.0,21.0,29.89,WSW,247,0.0,0.0,72,0.00,,,0.00,TxWx,2013-01-05 00:31:00,
2013-01-04 19:36:00,30.0,21.0,29.89,WSW,247,0.0,0.0,73,0.00,,,0.00,TxWx,2013-01-05 00:36:00,
2013-01-04 19:41:00,30.0,21.0,29.89,WSW,247,0.0,0.0,73,0.00,,,0.00,TxWx,2013-01-05 00:41:00,
2013-01-04 19:46:00,30.0,21.0,29.89,WSW,247,0.0,0.0,73,0.00,,,0.00,TxWx,2013-01-05 00:46:00,
2013-01-04 19:52:00,30.0,21.0,29.89,WSW,247,0.0,0.0,73,0.00,,,0.00,TxWx,2013-01-05 00:52:00,
2013-01-04 19:57:00,30.0,22.0,29.89,WSW,247,0.0,0.0,74,0.00,,,0.00,TxWx,2013-01-05 00:57:00,
2013-01-04 20:02:00,29.0,21.0,29.89,WSW,247,0.0,0.0,74,0.00,,,0.00,TxWx,2013-01-05 01:02:00,
2013-01-04 20:07:00,29.0,21.0,29.89,WSW,247,0.0,0.0,74,0.00,,,0.00,TxWx,2013-01-05 01:07:00,
2013-01-04 20:12:00,29.0,21.0,29.89,WSW,247,0.0,0.0,75,0.00,,,0.00,TxWx,2013-01-05 01:12:00,
2013-01-04 20:17:00,29.0,21.0,29.90,WSW,247,0.0,0.0,75,0.00,,,0.00,TxWx,2013-01-05 01:17:00,
2013-01-04 20:22:00,29.0,21.0,29.89,WSW,247,0.0,0.0,75,0.00,,,0.00,TxWx,2013-01-05 01:22:00,
2013-01-04 20:27:00,29.0,21.0,29.90,WSW,247,0.0,0.0,76,0.00,,,0.00,TxWx,2013-01-05 01:27:00,
2013-01-04 20:32:00,29.0,21.0,29.89,WNW,292,1.0,1.0,76,0.00,,,0.00,TxWx,2013-01-05 01:32:00,
2013-01-04 20:37:00,29.0,22.0,29.90,NE,45,0.0,0.0,77,0.00,,,0.00,TxWx,2013-01-05 01:37:00,
2013-01-04 20:42:00,29.0,22.0,29.90,WNW,292,0.0,1.0,77,0.00,,,0.00,TxWx,2013-01-05 01:42:00,
2013-01-04 20:48:00,29.0,22.0,29.90,NNE,22,1.0,2.0,78,0.00,,,0.00,TxWx,2013-01-05 01:48:00,
2013-01-04 20:53:00,29.0,22.0,29.90,SSW,202,0.0,0.0,78,0.00,,,0.00,TxWx,2013-01-05 01:53:00,
2013-01-04 20:58:00,29.0,22.0,29.90,NNE,22,0.0,0.0,79,0.00,,,0.00,TxWx,2013-01-05 01:58:00,
2013-01-04 21:03:00,29.0,22.0,29.90,NE,45,0.0,0.0,79,0.00,,,0.00,TxWx,2013-01-05 02:03:00,
2013-01-04 21:08:00,29.0,22.0,29.90,East,90,0.0,0.0,79,0.00,,,0.00,TxWx,2013-01-05 02:08:00,
2013-01-04 21:13:00,30.0,23.0,29.91,East,90,0.0,0.0,79,0.00,,,0.00,TxWx,2013-01-05 02:13:00,
2013-01-04 21:18:00,30.0,23.0,29.91,East,90,0.0,0.0,80,0.00,,,0.00,TxWx,2013-01-05 02:18:00,
2013-01-04 21:23:00,30.0,23.0,29.91,East,90,0.0,0.0,80,0.00,,,0.00,TxWx,2013-01-05 02:23:00,
2013-01-04 21:28:00,30.0,23.0,29.91,East,90,0.0,0.0,80,0.00,,,0.00,TxWx,2013-01-05 02:28:00,
2013-01-04 21:33:00,30.0,24.0,29.91,SE,135,0.0,0.0,80,0.00,,,0.00,TxWx,2013-01-05 02:33:00,
2013-01-04 21:38:00,30.0,24.0,29.91,NE,45,3.0,3.0,80,0.00,,,0.00,TxWx,2013-01-05 02:38:00,
2013-01-04 21:43:00,30.0,24.0,29.91,WNW,292,0.0,0.0,80,0.00,,,0.00,TxWx,2013-01-05 02:43:00,
2013-01-04 21:48:00,30.0,24.0,29.91,ESE,112,2.0,3.0,80,0.00,,,0.00,TxWx,2013-01-05 02:48:00,
2013-01-04 21:54:00,31.0,25.0,29.91,ESE,112,0.0,0.0,80,0.00,,,0.00,TxWx,2013-01-05 02:54:00,
2013-01-04 21:59:00,31.0,24.0,29.91,SE,135,0.0,0.0,80,0.00,,,0.00,TxWx,2013-01-05 02:59:00,
2013-01-04 22:04:00,31.0,24.0,29.91,East,90,0.0,0.0,79,0.00,,,0.00,TxWx,2013-01-05 03:04:00,
2013-01-04 22:09:00,32.0,25.0,29.91,ESE,112,0.0,0.0,79,0.00,,,0.00,TxWx,2013-01-05 03:09:00,
2013-01-04 22:14:00,32.0,25.0,29.92,SSE,157,1.0,2.0,78,0.00,,,0.00,TxWx,2013-01-05 03:14:00,
2013-01-04 22:19:00,33.0,25.0,29.92,South,180,0.0,0.0,76,0.00,,,0.00,TxWx,2013-01-05 03:19:00,
2013-01-04 22:24:00,34.0,25.0,29.92,SSE,157,0.0,1.0,74,0.00,,,0.00,TxWx,2013-01-05 03:24:00,
2013-01-04 22:29:00,34.0,24.0,29.92,SW,225,11.0,13.0,69,0.00,,,0.00,TxWx,2013-01-05 03:29:00,
2013-01-04 22:34:00,35.0,24.0,29.92,SSW,202,4.0,5.0,66,0.00,,,0.00,TxWx,2013-01-05 03:34:00,
2013-01-04 22:39:00,35.0,24.0,29.92,West,270,3.0,3.0,66,0.00,,,0.00,TxWx,2013-01-05 03:39:00,
2013-01-04 22:44:00,35.0,23.0,29.93,SSE,157,4.0,5.0,65,0.00,,,0.00,TxWx,2013-01-05 03:44:00,
2013-01-04 22:49:00,35.0,23.0,29.93,SSW,202,3.0,4.0,65,0.00,,,0.00,TxWx,2013-01-05 03:49:00,
2013-01-04 22:54:00,35.0,23.0,29.93,West,270,5.0,5.0,64,0.00,,,0.00,TxWx,2013-01-05 03:54:00,
2013-01-04 23:00:00,35.0,23.0,29.93,WSW,247,3.0,5.0,64,0.00,,,0.00,TxWx,2013-01-05 04:00:00,
2013-01-04 23:05:00,36.0,24.0,29.93,SSE,157,0.0,0.0,64,0.00,,,0.00,TxWx,2013-01-05 04:05:00,
2013-01-04 23:10:00,35.0,23.0,29.93,SE,135,3.0,5.0,64,0.00,,,0.00,TxWx,2013-01-05 04:10:00,
2013-01-04 23:15:00,36.0,24.0,29.93,SSW,202,8.0,9.0,65,0.00,,,0.00,TxWx,2013-01-05 04:15:00,
2013-01-04 23:20:00,36.0,24.0,29.93,South,180,1.0,3.0,65,0.00,,,0.00,TxWx,2013-01-05 04:20:00,
2013-01-04 23:25:00,36.0,24.0,29.93,NNW,337,2.0,5.0,65,0.00,,,0.00,TxWx,2013-01-05 04:25:00,
2013-01-04 23:30:00,36.0,24.0,29.93,SSW,202,8.0,11.0,65,0.00,,,0.00,TxWx,2013-01-05 04:30:00,
2013-01-04 23:35:00,36.0,25.0,29.92,SSE,157,1.0,4.0,66,0.00,,,0.00,TxWx,2013-01-05 04:35:00,
2013-01-04 23:40:00,36.0,25.0,29.93,WNW,292,1.0,3.0,66,0.00,,,0.00,TxWx,2013-01-05 04:40:00,
2013-01-04 23:45:00,36.0,25.0,29.93,SW,225,6.0,7.0,66,0.00,,,0.00,TxWx,2013-01-05 04:45:00,
2013-01-04 23:50:00,36.0,25.0,29.93,SSW,202,3.0,6.0,66,0.00,,,0.00,TxWx,2013-01-05 04:50:00,
2013-01-04 23:58:00,36.0,25.0,29.93,South,180,2.0,3.0,66,0.00,,,0.00,TxWx,2013-01-05 04:58:00,